Flag for Brazil Weather past 2 weeks in São Paulo, São Paulo, Brazil

Now
66 °F

Clear.


Feels Like: 66 °F
Forecast: 65 / 77 °F
Wind: 3 mph from Northwest

Location: Sao Paulo Airport

Current Time: Oct 25, 2014 at 2:15:25 AM

Latest Report: Oct 25, 2014 at 2:00 AM


Visibility: 4 mi

Pressure: 30.04 "Hg

Humidity: 78%

Dew point: 59 °F

Location of São PauloLocation

Historic Weather in São Paulo — Graph

°F

São Paulo temperature yesterday

Maximum temperature yesterday: 86 °F (at 2:00 PM)
Minimum temperature yesterday: 61 °F (at 2:00 AM)
Average temperature yesterday: 68 °F

Past Weeks' High & Low Weather Summary

 TemperatureHumidityPressure
High97 °F (Oct 13, 2:00 PM)88% (Oct 17, 2:00 AM)30.27 "Hg (Oct 17, 2:00 AM)
Low59 °F (Oct 22, 4:00 AM)13% (Oct 12, 3:00 PM)29.89 "Hg (Oct 19, 4:00 PM)
Average73 °F60%30.10 "Hg
* Reported Midnight between Oct 9 and Oct 10 — Oct 25 1:00 AM, São Paulo, Weather by CustomWeather, © 2014

Note: Actual official high and low records may vary slightly from our data, if they occured in-between our weather recording intervals... More about our weather records

Advertising

São Paulo weather history for previous 24 hours

 ConditionsComfort  
Time TempWeatherWind HumidityBarometerVisibility
1:00 AM
Oct 25
66 °FClear.2 mph78%30.07 "Hg5 mi
12:00 AM66 °FPassing clouds.5 mph78%30.07 "Hg5 mi
11:00 PM
Oct 24
64 °FLow clouds.6 mph83%30.07 "HgN/A
10:00 PM64 °FMostly cloudy.10 mph83%30.07 "HgN/A
9:00 PM64 °FLow clouds.9 mph83%30.04 "HgN/A
8:00 PM63 °FLow clouds.12 mph88%30.04 "Hg6 mi
7:00 PM64 °FFog.13 mph83%30.01 "Hg1 mi
6:00 PM66 °FFog.15 mph83%30.01 "Hg1 mi
5:00 PM68 °FBroken clouds.16 mph78%30.01 "Hg3 mi
4:00 PM73 °FSunny.16 mph69%30.01 "Hg10 mi
3:00 PM81 °FPassing clouds.16 mph51%30.04 "HgN/A
2:00 PM86 °FScattered clouds.3 mph35%30.04 "HgN/A
1:00 PM84 °FSunny.6 mph37%30.07 "Hg10 mi
12:00 PM82 °FSunny.6 mph42%30.09 "Hg10 mi
11:00 AM77 °FSunny.2 mph54%30.09 "Hg10 mi
10:00 AM72 °FSunny.6 mph61%30.12 "Hg10 mi
9:00 AM68 °FSunny.6 mph69%30.12 "Hg10 mi
8:00 AM66 °FSunny.5 mph73%30.09 "Hg10 mi
7:00 AM63 °FFog.3 mph83%30.09 "Hg3 mi
6:00 AM63 °FFog.5 mph83%30.07 "Hg3 mi
5:00 AM63 °FFog.3 mph83%30.07 "Hg3 mi
4:00 AM61 °FFog.5 mph83%30.07 "Hg2 mi
3:00 AM61 °FFog.6 mph88%30.09 "Hg3 mi
2:00 AM61 °FFog.8 mph88%30.12 "Hg3 mi
Weather by CustomWeather, © 2014

See weather overviewHow to use our weather pages